Year,Month,Day,Hour,Minute,Value (Times are PST for temperature in C)
2014,05,01,00,00,12.90
2014,05,01,00,01,12.80
2014,05,01,00,02,12.80
2014,05,01,00,03,12.80
2014,05,01,00,04,12.80
2014,05,01,00,05,12.80
2014,05,01,00,06,12.70
2014,05,01,00,07,12.70
2014,05,01,00,08,12.70
2014,05,01,00,09,12.70
2014,05,01,00,10,12.70
2014,05,01,00,11,12.70
2014,05,01,00,12,12.70
2014,05,01,00,13,12.70
2014,05,01,00,14,12.70
2014,05,01,00,15,12.80
2014,05,01,00,16,12.80
2014,05,01,00,17,12.80
2014,05,01,00,18,12.90
2014,05,01,00,19,12.90
2014,05,01,00,20,12.90
2014,05,01,00,21,12.90
2014,05,01,00,22,13.00
2014,05,01,00,23,13.00
2014,05,01,00,24,13.00
2014,05,01,00,25,13.00
2014,05,01,00,26,13.10
2014,05,01,00,27,13.10
2014,05,01,00,28,13.10
2014,05,01,00,29,13.20
2014,05,01,00,30,13.20
2014,05,01,00,31,13.30
2014,05,01,00,32,13.30
2014,05,01,00,33,13.40
2014,05,01,00,34,13.40
2014,05,01,00,35,13.40
2014,05,01,00,36,13.50
2014,05,01,00,37,13.50
2014,05,01,00,38,13.50
2014,05,01,00,39,13.50
2014,05,01,00,40,13.50
2014,05,01,00,41,13.50
2014,05,01,00,42,13.50
2014,05,01,00,43,13.40
2014,05,01,00,44,13.40
2014,05,01,00,45,13.40
2014,05,01,00,46,13.40
2014,05,01,00,47,13.30
2014,05,01,00,48,13.30
2014,05,01,00,49,13.30
2014,05,01,00,50,13.30
2014,05,01,00,51,13.30
2014,05,01,00,52,13.20
2014,05,01,00,53,13.20
2014,05,01,00,54,13.20
2014,05,01,00,55,13.20
2014,05,01,00,56,13.20
2014,05,01,00,57,13.10
2014,05,01,00,58,13.10
2014,05,01,00,59,13.10
2014,05,01,01,00,13.00
2014,05,01,01,01,13.00
2014,05,01,01,02,13.00
2014,05,01,01,03,12.90
2014,05,01,01,04,12.90
2014,05,01,01,05,12.90
2014,05,01,01,06,12.80
2014,05,01,01,07,12.80
2014,05,01,01,08,12.80
2014,05,01,01,09,12.80
2014,05,01,01,10,12.80
2014,05,01,01,11,12.80
2014,05,01,01,12,12.80
2014,05,01,01,13,12.70
2014,05,01,01,14,12.70
2014,05,01,01,15,12.70
2014,05,01,01,16,12.70
2014,05,01,01,17,12.70
2014,05,01,01,18,12.70
2014,05,01,01,19,12.70
2014,05,01,01,20,12.60
2014,05,01,01,21,12.60
2014,05,01,01,22,12.60
2014,05,01,01,23,12.50
2014,05,01,01,24,12.50
2014,05,01,01,25,12.50
2014,05,01,01,26,12.40
2014,05,01,01,27,12.40
2014,05,01,01,28,12.40
2014,05,01,01,29,12.30
2014,05,01,01,30,12.30
2014,05,01,01,31,12.30
2014,05,01,01,32,12.30
2014,05,01,01,33,12.30
2014,05,01,01,34,12.30
2014,05,01,01,35,12.20
2014,05,01,01,36,12.20
2014,05,01,01,37,12.20
2014,05,01,01,38,12.20
2014,05,01,01,39,12.20
2014,05,01,01,40,12.20
2014,05,01,01,41,12.10
2014,05,01,01,42,12.10
2014,05,01,01,43,12.10
2014,05,01,01,44,12.10
2014,05,01,01,45,12.10
2014,05,01,01,46,12.00
2014,05,01,01,47,12.00
2014,05,01,01,48,12.00
2014,05,01,01,49,12.00
2014,05,01,01,50,12.00
2014,05,01,01,51,12.00
2014,05,01,01,52,12.00
2014,05,01,01,53,11.90
2014,05,01,01,54,11.90
2014,05,01,01,55,11.90
2014,05,01,01,56,11.90
2014,05,01,01,57,11.90
2014,05,01,01,58,11.90
2014,05,01,01,59,11.80
2014,05,01,02,00,11.80
2014,05,01,02,01,11.80
2014,05,01,02,02,11.80
2014,05,01,02,03,11.80
2014,05,01,02,04,11.80
2014,05,01,02,05,11.70
2014,05,01,02,06,11.70
2014,05,01,02,07,11.70
2014,05,01,02,08,11.70
2014,05,01,02,09,11.70
2014,05,01,02,10,11.70
2014,05,01,02,11,11.70
2014,05,01,02,12,11.70
2014,05,01,02,13,11.70
2014,05,01,02,14,11.70
2014,05,01,02,15,11.70
2014,05,01,02,16,11.70
2014,05,01,02,17,11.70
2014,05,01,02,18,11.70
2014,05,01,02,19,11.70
2014,05,01,02,20,11.60
2014,05,01,02,21,11.60
2014,05,01,02,22,11.60
2014,05,01,02,23,11.50
2014,05,01,02,24,11.50
2014,05,01,02,25,11.50
2014,05,01,02,26,11.40
2014,05,01,02,27,11.40
2014,05,01,02,28,11.40
2014,05,01,02,29,11.40
2014,05,01,02,30,11.40
2014,05,01,02,31,11.40
2014,05,01,02,32,11.40
2014,05,01,02,33,11.40
2014,05,01,02,34,11.40
2014,05,01,02,35,11.40
2014,05,01,02,36,11.40
2014,05,01,02,37,11.40
2014,05,01,02,38,11.50
2014,05,01,02,39,11.50
2014,05,01,02,40,11.50
2014,05,01,02,41,11.60
2014,05,01,02,42,11.60
2014,05,01,02,43,11.60
2014,05,01,02,44,11.60
2014,05,01,02,45,11.60
2014,05,01,02,46,11.60
2014,05,01,02,47,11.60
2014,05,01,02,48,11.60
2014,05,01,02,49,11.60
2014,05,01,02,50,11.60
2014,05,01,02,51,11.60
2014,05,01,02,52,11.60
2014,05,01,02,53,11.60
2014,05,01,02,54,11.50
2014,05,01,02,55,11.50
2014,05,01,02,56,11.50
2014,05,01,02,57,11.50
2014,05,01,02,58,11.50
2014,05,01,02,59,11.50
2014,05,01,03,00,11.50
2014,05,01,03,01,11.50
2014,05,01,03,02,11.50
2014,05,01,03,03,11.50
2014,05,01,03,04,11.50
2014,05,01,03,05,11.50
2014,05,01,03,06,11.50
2014,05,01,03,07,11.50
2014,05,01,03,08,11.50
2014,05,01,03,09,11.50
2014,05,01,03,10,11.50
2014,05,01,03,11,11.50
2014,05,01,03,12,11.40
2014,05,01,03,13,11.40
2014,05,01,03,14,11.40
2014,05,01,03,15,11.40
2014,05,01,03,16,11.40
2014,05,01,03,17,11.30
2014,05,01,03,18,11.30
2014,05,01,03,19,11.30
2014,05,01,03,20,11.30
2014,05,01,03,21,11.20
2014,05,01,03,22,11.20
2014,05,01,03,23,11.20
2014,05,01,03,24,11.10
2014,05,01,03,25,11.10
2014,05,01,03,26,11.10
2014,05,01,03,27,11.10
2014,05,01,03,28,11.10
2014,05,01,03,29,11.10
2014,05,01,03,30,11.10
2014,05,01,03,31,11.00
2014,05,01,03,32,11.10
2014,05,01,03,33,11.10
2014,05,01,03,34,11.10
2014,05,01,03,35,11.10
2014,05,01,03,36,11.10
2014,05,01,03,37,11.10
2014,05,01,03,38,11.20
2014,05,01,03,39,11.20
2014,05,01,03,40,11.30
2014,05,01,03,41,11.30
2014,05,01,03,42,11.40
2014,05,01,03,43,11.50
2014,05,01,03,44,11.50
2014,05,01,03,45,11.60
2014,05,01,03,46,11.60
2014,05,01,03,47,11.70
2014,05,01,03,48,11.70
2014,05,01,03,49,11.70
2014,05,01,03,50,11.80
2014,05,01,03,51,11.80
2014,05,01,03,52,11.80
2014,05,01,03,53,11.80
2014,05,01,03,54,11.80
2014,05,01,03,55,11.90
2014,05,01,03,56,11.90
2014,05,01,03,57,11.90
2014,05,01,03,58,11.90
2014,05,01,03,59,11.90
2014,05,01,04,00,11.90
2014,05,01,04,01,11.90
2014,05,01,04,02,12.00
2014,05,01,04,03,12.00
2014,05,01,04,04,12.00
2014,05,01,04,05,12.00
2014,05,01,04,06,12.00
2014,05,01,04,07,11.90
2014,05,01,04,08,11.90
2014,05,01,04,09,11.90
2014,05,01,04,10,11.90
2014,05,01,04,11,11.90
2014,05,01,04,12,11.90
2014,05,01,04,13,11.90
2014,05,01,04,14,11.80
2014,05,01,04,15,11.80
2014,05,01,04,16,11.90
2014,05,01,04,17,12.00
2014,05,01,04,18,12.10
2014,05,01,04,19,12.30
2014,05,01,04,20,12.40
2014,05,01,04,21,12.50
2014,05,01,04,22,12.60
2014,05,01,04,23,12.70
2014,05,01,04,24,12.80
2014,05,01,04,25,12.90
2014,05,01,04,26,12.90
2014,05,01,04,27,13.00
2014,05,01,04,28,13.00
2014,05,01,04,29,13.10
2014,05,01,04,30,13.10
2014,05,01,04,31,13.10
2014,05,01,04,32,13.10
2014,05,01,04,33,13.10
2014,05,01,04,34,13.10
2014,05,01,04,35,13.10
2014,05,01,04,36,13.10
2014,05,01,04,37,13.10
2014,05,01,04,38,13.10
2014,05,01,04,39,13.10
2014,05,01,04,40,13.10
2014,05,01,04,41,13.10
2014,05,01,04,42,13.10
2014,05,01,04,43,13.10
2014,05,01,04,44,13.10
2014,05,01,04,45,13.10
2014,05,01,04,46,13.00
2014,05,01,04,47,13.00
2014,05,01,04,48,12.90
2014,05,01,04,49,12.90
2014,05,01,04,50,12.90
2014,05,01,04,51,12.80
2014,05,01,04,52,12.80
2014,05,01,04,53,12.70
2014,05,01,04,54,12.70
2014,05,01,04,55,12.70
2014,05,01,04,56,12.70
2014,05,01,04,57,12.60
2014,05,01,04,58,12.60
2014,05,01,04,59,12.60
2014,05,01,05,00,12.60
2014,05,01,05,01,12.50
2014,05,01,05,02,12.50
2014,05,01,05,03,12.50
2014,05,01,05,04,12.60
2014,05,01,05,05,12.60
2014,05,01,05,06,12.60
2014,05,01,05,07,12.60
2014,05,01,05,08,12.60
2014,05,01,05,09,12.60
2014,05,01,05,10,12.60
2014,05,01,05,11,12.70
2014,05,01,05,12,12.70
2014,05,01,05,13,12.70
2014,05,01,05,14,12.70
2014,05,01,05,15,12.70
2014,05,01,05,16,12.70
2014,05,01,05,17,12.70
2014,05,01,05,18,12.70
2014,05,01,05,19,12.70
2014,05,01,05,20,12.70
2014,05,01,05,21,12.70
2014,05,01,05,22,12.70
2014,05,01,05,23,12.70
2014,05,01,05,24,12.70
2014,05,01,05,25,12.70
2014,05,01,05,26,12.70
2014,05,01,05,27,12.70
2014,05,01,05,28,12.60
2014,05,01,05,29,12.60
2014,05,01,05,30,12.60
2014,05,01,05,31,12.60
2014,05,01,05,32,12.60
2014,05,01,05,33,12.60
2014,05,01,05,34,12.50
2014,05,01,05,35,12.50
2014,05,01,05,36,12.50
2014,05,01,05,37,12.40
2014,05,01,05,38,12.40
2014,05,01,05,39,12.30
2014,05,01,05,40,12.30
2014,05,01,05,41,12.30
2014,05,01,05,42,12.20
2014,05,01,05,43,12.20
2014,05,01,05,44,12.20
2014,05,01,05,45,12.20
2014,05,01,05,46,12.20
2014,05,01,05,47,12.10
2014,05,01,05,48,12.10
2014,05,01,05,49,12.10
2014,05,01,05,50,12.10
2014,05,01,05,51,12.10
2014,05,01,05,52,12.20
2014,05,01,05,53,12.20
2014,05,01,05,54,12.20
2014,05,01,05,55,12.20
2014,05,01,05,56,12.30
2014,05,01,05,57,12.30
2014,05,01,05,58,12.30
2014,05,01,05,59,12.40
2014,05,01,06,00,12.40
2014,05,01,06,01,12.40
2014,05,01,06,02,12.40
2014,05,01,06,03,12.50
2014,05,01,06,04,12.50
2014,05,01,06,05,12.50
2014,05,01,06,06,12.50
2014,05,01,06,07,12.50
2014,05,01,06,08,12.50
2014,05,01,06,09,12.50
2014,05,01,06,10,12.50
2014,05,01,06,11,12.50
2014,05,01,06,12,12.60
2014,05,01,06,13,12.60
2014,05,01,06,14,12.50
2014,05,01,06,15,12.50
2014,05,01,06,16,12.50
2014,05,01,06,17,12.50
2014,05,01,06,18,12.50
2014,05,01,06,19,12.50
2014,05,01,06,20,12.50
2014,05,01,06,21,12.40
2014,05,01,06,22,12.40
2014,05,01,06,23,12.40
2014,05,01,06,24,12.40
2014,05,01,06,25,12.40
2014,05,01,06,26,12.40
2014,05,01,06,27,12.40
2014,05,01,06,28,12.40
2014,05,01,06,29,12.30
2014,05,01,06,30,12.40
2014,05,01,06,31,12.40
2014,05,01,06,32,12.40
2014,05,01,06,33,12.50
2014,05,01,06,34,12.50
2014,05,01,06,35,12.60
2014,05,01,06,36,12.70
2014,05,01,06,37,12.70
2014,05,01,06,38,12.80
2014,05,01,06,39,12.90
2014,05,01,06,40,13.00
2014,05,01,06,41,13.10
2014,05,01,06,42,13.20
2014,05,01,06,43,13.30
2014,05,01,06,44,13.40
2014,05,01,06,45,13.50
2014,05,01,06,46,13.60
2014,05,01,06,47,13.70
2014,05,01,06,48,13.80
2014,05,01,06,49,13.90
2014,05,01,06,50,14.00
2014,05,01,06,51,14.00
2014,05,01,06,52,14.10
2014,05,01,06,53,14.20
2014,05,01,06,54,14.30
2014,05,01,06,55,14.30
2014,05,01,06,56,14.40
2014,05,01,06,57,14.40
2014,05,01,06,58,14.50
2014,05,01,06,59,14.60
2014,05,01,07,00,14.60
2014,05,01,07,01,14.70
2014,05,01,07,02,14.70
2014,05,01,07,03,14.80
2014,05,01,07,04,14.80
2014,05,01,07,05,14.80
2014,05,01,07,06,14.80
2014,05,01,07,07,14.90
2014,05,01,07,08,14.90
2014,05,01,07,09,14.90
2014,05,01,07,10,15.00
2014,05,01,07,11,15.00
2014,05,01,07,12,15.10
2014,05,01,07,13,15.10
2014,05,01,07,14,15.10
2014,05,01,07,15,15.10
2014,05,01,07,16,15.20
2014,05,01,07,17,15.20
2014,05,01,07,18,15.20
2014,05,01,07,19,15.30
2014,05,01,07,20,15.30
2014,05,01,07,21,15.40
2014,05,01,07,22,15.40
2014,05,01,07,23,15.50
2014,05,01,07,24,15.50
2014,05,01,07,25,15.60
2014,05,01,07,26,15.60
2014,05,01,07,27,15.70
2014,05,01,07,28,15.70
2014,05,01,07,29,15.70
2014,05,01,07,30,15.80
2014,05,01,07,31,15.80
2014,05,01,07,32,15.80
2014,05,01,07,33,15.80
2014,05,01,07,34,15.90
2014,05,01,07,35,15.90
2014,05,01,07,36,15.90
2014,05,01,07,37,15.90
2014,05,01,07,38,15.90
2014,05,01,07,39,15.90
2014,05,01,07,40,15.90
2014,05,01,07,41,16.00
2014,05,01,07,42,15.90
2014,05,01,07,43,15.90
2014,05,01,07,44,15.90
2014,05,01,07,45,15.90
2014,05,01,07,46,15.90
2014,05,01,07,47,15.90
2014,05,01,07,48,15.90
2014,05,01,07,49,15.90
2014,05,01,07,50,16.00
2014,05,01,07,51,16.00
2014,05,01,07,52,16.00
2014,05,01,07,53,16.00
2014,05,01,07,54,16.00
2014,05,01,07,55,16.00
2014,05,01,07,56,16.00
2014,05,01,07,57,16.00
2014,05,01,07,58,16.00
2014,05,01,07,59,16.00
2014,05,01,08,00,16.00
2014,05,01,08,01,16.10
2014,05,01,08,02,16.10
2014,05,01,08,03,16.10
2014,05,01,08,04,16.20
2014,05,01,08,05,16.20
2014,05,01,08,06,16.30
2014,05,01,08,07,16.30
2014,05,01,08,08,16.30
2014,05,01,08,09,16.40
2014,05,01,08,10,16.40
2014,05,01,08,11,16.50
2014,05,01,08,12,16.50
2014,05,01,08,13,16.60
2014,05,01,08,14,16.60
2014,05,01,08,15,16.70
2014,05,01,08,16,16.70
2014,05,01,08,17,16.70
2014,05,01,08,18,16.80
2014,05,01,08,19,16.80
2014,05,01,08,20,16.80
2014,05,01,08,21,16.90
2014,05,01,08,22,16.90
2014,05,01,08,23,16.90
2014,05,01,08,24,17.00
2014,05,01,08,25,17.00
2014,05,01,08,26,17.10
2014,05,01,08,27,17.10
2014,05,01,08,28,17.20
2014,05,01,08,29,17.20
2014,05,01,08,30,17.30
2014,05,01,08,31,17.30
2014,05,01,08,32,17.30
2014,05,01,08,33,17.40
2014,05,01,08,34,17.40
2014,05,01,08,35,17.40
2014,05,01,08,36,17.50
2014,05,01,08,37,17.50
2014,05,01,08,38,17.60
2014,05,01,08,39,17.60
2014,05,01,08,40,17.60
2014,05,01,08,41,17.60
2014,05,01,08,42,17.60
2014,05,01,08,43,17.60
2014,05,01,08,44,17.70
2014,05,01,08,45,17.70
2014,05,01,08,46,17.70
2014,05,01,08,47,17.80
2014,05,01,08,48,17.80
2014,05,01,08,49,17.80
2014,05,01,08,50,17.80
2014,05,01,08,51,17.80
2014,05,01,08,52,17.80
2014,05,01,08,53,17.80
2014,05,01,08,54,17.80
2014,05,01,08,55,17.80
2014,05,01,08,56,17.80
2014,05,01,08,57,17.80
2014,05,01,08,58,17.90
2014,05,01,08,59,17.90
2014,05,01,09,00,17.90
2014,05,01,09,01,17.90
2014,05,01,09,02,17.90
2014,05,01,09,03,17.90
2014,05,01,09,04,17.80
2014,05,01,09,05,17.90
2014,05,01,09,06,17.90
2014,05,01,09,07,17.90
2014,05,01,09,08,17.90
2014,05,01,09,09,17.90
2014,05,01,09,10,18.00
2014,05,01,09,11,18.00
2014,05,01,09,12,18.00
2014,05,01,09,13,18.10
2014,05,01,09,14,18.10
2014,05,01,09,15,18.10
2014,05,01,09,16,18.20
2014,05,01,09,17,18.20
2014,05,01,09,18,18.20
2014,05,01,09,19,18.20
2014,05,01,09,20,18.20
2014,05,01,09,21,18.20
2014,05,01,09,22,18.20
2014,05,01,09,23,18.20
2014,05,01,09,24,18.20
2014,05,01,09,25,18.20
2014,05,01,09,26,18.20
2014,05,01,09,27,18.20
2014,05,01,09,28,18.20
2014,05,01,09,29,18.30
2014,05,01,09,30,18.30
2014,05,01,09,31,18.30
2014,05,01,09,32,18.30
2014,05,01,09,33,18.30
2014,05,01,09,34,18.30
2014,05,01,09,35,18.30
2014,05,01,09,36,18.30
2014,05,01,09,37,18.30
2014,05,01,09,38,18.30
2014,05,01,09,39,18.40
2014,05,01,09,40,18.40
2014,05,01,09,41,18.50
2014,05,01,09,42,18.60
2014,05,01,09,43,18.60
2014,05,01,09,44,18.60
2014,05,01,09,45,18.60
2014,05,01,09,46,18.60
2014,05,01,09,47,18.70
2014,05,01,09,48,18.70
2014,05,01,09,49,18.70
2014,05,01,09,50,18.70
2014,05,01,09,51,18.70
2014,05,01,09,52,18.80
2014,05,01,09,53,18.80
2014,05,01,09,54,18.80
2014,05,01,09,55,18.80
2014,05,01,09,56,18.90
2014,05,01,09,57,18.90
2014,05,01,09,58,19.00
2014,05,01,09,59,18.90
2014,05,01,10,00,18.90
2014,05,01,10,01,18.90
2014,05,01,10,02,19.00
2014,05,01,10,03,19.00
2014,05,01,10,04,19.00
2014,05,01,10,05,19.00
2014,05,01,10,06,18.90
2014,05,01,10,07,19.00
2014,05,01,10,08,19.00
2014,05,01,10,09,19.10
2014,05,01,10,10,19.10
2014,05,01,10,11,19.20
2014,05,01,10,12,19.20
2014,05,01,10,13,19.30
2014,05,01,10,14,19.30
2014,05,01,10,15,19.30
2014,05,01,10,16,19.30
2014,05,01,10,17,19.30
2014,05,01,10,18,19.40
2014,05,01,10,19,19.40
2014,05,01,10,20,19.40
2014,05,01,10,21,19.40
2014,05,01,10,22,19.40
2014,05,01,10,23,19.50
2014,05,01,10,24,19.50
2014,05,01,10,25,19.50
2014,05,01,10,26,19.60
2014,05,01,10,27,19.60
2014,05,01,10,28,19.70
2014,05,01,10,29,19.70
2014,05,01,10,30,19.80
2014,05,01,10,31,19.80
2014,05,01,10,32,19.80
2014,05,01,10,33,19.80
2014,05,01,10,34,19.90
2014,05,01,10,35,19.90
2014,05,01,10,36,19.90
2014,05,01,10,37,19.90
2014,05,01,10,38,20.00
2014,05,01,10,39,20.00
2014,05,01,10,40,20.10
2014,05,01,10,41,20.10
2014,05,01,10,42,20.10
2014,05,01,10,43,20.00
2014,05,01,10,44,20.00
2014,05,01,10,45,20.00
2014,05,01,10,46,20.00
2014,05,01,10,47,20.10
2014,05,01,10,48,20.10
2014,05,01,10,49,20.10
2014,05,01,10,50,20.10
2014,05,01,10,51,20.20
2014,05,01,10,52,20.20
2014,05,01,10,53,20.20
2014,05,01,10,54,20.30
2014,05,01,10,55,20.30
2014,05,01,10,56,20.30
2014,05,01,10,57,20.40
2014,05,01,10,58,20.40
2014,05,01,10,59,20.50
2014,05,01,11,00,20.60
2014,05,01,11,01,20.50
2014,05,01,11,02,20.50
2014,05,01,11,03,20.50
2014,05,01,11,04,20.60
2014,05,01,11,05,20.60
2014,05,01,11,06,20.60
2014,05,01,11,07,20.70
2014,05,01,11,08,20.70
2014,05,01,11,09,20.80
2014,05,01,11,10,20.80
2014,05,01,11,11,20.90
2014,05,01,11,12,20.90
2014,05,01,11,13,21.00
2014,05,01,11,14,21.00
2014,05,01,11,15,21.10
2014,05,01,11,16,21.10
2014,05,01,11,17,21.00
2014,05,01,11,18,21.00
2014,05,01,11,19,20.90
2014,05,01,11,20,20.90
2014,05,01,11,21,21.00
2014,05,01,11,22,21.00
2014,05,01,11,23,21.10
2014,05,01,11,24,21.10
2014,05,01,11,25,21.10
2014,05,01,11,26,21.10
2014,05,01,11,27,21.10
2014,05,01,11,28,21.10
2014,05,01,11,29,21.10
2014,05,01,11,30,21.10
2014,05,01,11,31,21.10
2014,05,01,11,32,21.00
2014,05,01,11,33,21.00
2014,05,01,11,34,20.90
2014,05,01,11,35,20.90
2014,05,01,11,36,20.90
2014,05,01,11,37,21.00
2014,05,01,11,38,21.00
2014,05,01,11,39,21.00
2014,05,01,11,40,21.00
2014,05,01,11,41,21.00
2014,05,01,11,42,21.00
2014,05,01,11,43,21.10
2014,05,01,11,44,21.10
2014,05,01,11,45,21.10
2014,05,01,11,46,21.10
2014,05,01,11,47,21.10
2014,05,01,11,48,21.20
2014,05,01,11,49,21.20
2014,05,01,11,50,21.20
2014,05,01,11,51,21.20
2014,05,01,11,52,21.20
2014,05,01,11,53,21.20
2014,05,01,11,54,21.10
2014,05,01,11,55,21.10
2014,05,01,11,56,21.10
2014,05,01,11,57,21.00
2014,05,01,11,58,20.90
2014,05,01,11,59,20.90
2014,05,01,12,00,20.90
2014,05,01,12,01,20.90
2014,05,01,12,02,20.90
2014,05,01,12,03,20.90
2014,05,01,12,04,20.90
2014,05,01,12,05,20.90
2014,05,01,12,06,21.00
2014,05,01,12,07,21.00
2014,05,01,12,08,21.10
2014,05,01,12,09,21.10
2014,05,01,12,10,21.20
2014,05,01,12,11,21.30
2014,05,01,12,12,21.40
2014,05,01,12,13,21.40
2014,05,01,12,14,21.40
2014,05,01,12,15,21.40
2014,05,01,12,16,21.40
2014,05,01,12,17,21.50
2014,05,01,12,18,21.40
2014,05,01,12,19,21.40
2014,05,01,12,20,21.50
2014,05,01,12,21,21.60
2014,05,01,12,22,21.60
2014,05,01,12,23,21.70
2014,05,01,12,24,21.80
2014,05,01,12,25,21.90
2014,05,01,12,26,22.00
2014,05,01,12,27,22.10
2014,05,01,12,28,22.20
2014,05,01,12,29,22.30
2014,05,01,12,30,22.30
2014,05,01,12,31,22.40
2014,05,01,12,32,22.40
2014,05,01,12,33,22.40
2014,05,01,12,34,22.40
2014,05,01,12,35,22.40
2014,05,01,12,36,22.30
2014,05,01,12,37,22.30
2014,05,01,12,38,22.30
2014,05,01,12,39,22.30
2014,05,01,12,40,22.20
2014,05,01,12,41,22.20
2014,05,01,12,42,22.30
2014,05,01,12,43,22.30
2014,05,01,12,44,22.40
2014,05,01,12,45,22.40
2014,05,01,12,46,22.50
2014,05,01,12,47,22.50
2014,05,01,12,48,22.50
2014,05,01,12,49,22.40
2014,05,01,12,50,22.40
2014,05,01,12,51,22.40
2014,05,01,12,52,22.40
2014,05,01,12,53,22.40
2014,05,01,12,54,22.40
2014,05,01,12,55,22.40
2014,05,01,12,56,22.40
2014,05,01,12,57,22.40
2014,05,01,12,58,22.30
2014,05,01,12,59,22.30
2014,05,01,13,00,22.30
2014,05,01,13,01,22.30
2014,05,01,13,02,22.30
2014,05,01,13,03,22.30
2014,05,01,13,04,22.30
2014,05,01,13,05,22.30
2014,05,01,13,06,22.20
2014,05,01,13,07,22.20
2014,05,01,13,08,22.20
2014,05,01,13,09,22.20
2014,05,01,13,10,22.20
2014,05,01,13,11,22.20
2014,05,01,13,12,22.30
2014,05,01,13,13,22.30
2014,05,01,13,14,22.30
2014,05,01,13,15,22.30
2014,05,01,13,16,22.40
2014,05,01,13,17,22.40
2014,05,01,13,18,22.50
2014,05,01,13,19,22.60
2014,05,01,13,20,22.60
2014,05,01,13,21,22.70
2014,05,01,13,22,22.70
2014,05,01,13,23,22.80
2014,05,01,13,24,22.80
2014,05,01,13,25,22.80
2014,05,01,13,26,22.90
2014,05,01,13,27,22.90
2014,05,01,13,28,22.90
2014,05,01,13,29,22.80
2014,05,01,13,30,22.80
2014,05,01,13,31,22.80
2014,05,01,13,32,22.80
2014,05,01,13,33,22.70
2014,05,01,13,34,22.60
2014,05,01,13,35,22.50
2014,05,01,13,36,22.50
2014,05,01,13,37,22.50
2014,05,01,13,38,22.50
2014,05,01,13,39,22.50
2014,05,01,13,40,22.50
2014,05,01,13,41,22.50
2014,05,01,13,42,22.50
2014,05,01,13,43,22.50
2014,05,01,13,44,22.50
2014,05,01,13,45,22.50
2014,05,01,13,46,22.40
2014,05,01,13,47,22.40
2014,05,01,13,48,22.40
2014,05,01,13,49,22.50
2014,05,01,13,50,22.50
2014,05,01,13,51,22.60
2014,05,01,13,52,22.70
2014,05,01,13,53,22.70
2014,05,01,13,54,22.80
2014,05,01,13,55,22.90
2014,05,01,13,56,23.00
2014,05,01,13,57,23.10
2014,05,01,13,58,23.10
2014,05,01,13,59,23.20
2014,05,01,14,00,23.20
2014,05,01,14,01,23.30
2014,05,01,14,02,23.30
2014,05,01,14,03,23.40
2014,05,01,14,04,23.50
2014,05,01,14,05,23.50
2014,05,01,14,06,23.60
2014,05,01,14,07,23.60
2014,05,01,14,08,23.50
2014,05,01,14,09,23.50
2014,05,01,14,10,23.40
2014,05,01,14,11,23.30
2014,05,01,14,12,23.30
2014,05,01,14,13,23.40
2014,05,01,14,14,23.40
2014,05,01,14,15,23.40
2014,05,01,14,16,23.40
2014,05,01,14,17,23.40
2014,05,01,14,18,23.40
2014,05,01,14,19,23.40
2014,05,01,14,20,23.40
2014,05,01,14,21,23.40
2014,05,01,14,22,23.40
2014,05,01,14,23,23.40
2014,05,01,14,24,23.30
2014,05,01,14,25,23.30
2014,05,01,14,26,23.30
2014,05,01,14,27,23.30
2014,05,01,14,28,23.30
2014,05,01,14,29,23.30
2014,05,01,14,30,23.30
2014,05,01,14,31,23.40
2014,05,01,14,32,23.40
2014,05,01,14,33,23.40
2014,05,01,14,34,23.50
2014,05,01,14,35,23.50
2014,05,01,14,36,23.60
2014,05,01,14,37,23.50
2014,05,01,14,38,23.50
2014,05,01,14,39,23.40
2014,05,01,14,40,23.40
2014,05,01,14,41,23.50
2014,05,01,14,42,23.50
2014,05,01,14,43,23.60
2014,05,01,14,44,23.60
2014,05,01,14,45,23.70
2014,05,01,14,46,23.70
2014,05,01,14,47,23.70
2014,05,01,14,48,23.70
2014,05,01,14,49,23.70
2014,05,01,14,50,23.70
2014,05,01,14,51,23.70
2014,05,01,14,52,23.70
2014,05,01,14,53,23.70
2014,05,01,14,54,23.60
2014,05,01,14,55,23.60
2014,05,01,14,56,23.50
2014,05,01,14,57,23.50
2014,05,01,14,58,23.40
2014,05,01,14,59,23.50
2014,05,01,15,00,23.50
2014,05,01,15,01,23.60
2014,05,01,15,02,23.60
2014,05,01,15,03,23.60
2014,05,01,15,04,23.70
2014,05,01,15,05,23.70
2014,05,01,15,06,23.70
2014,05,01,15,07,23.70
2014,05,01,15,08,23.70
2014,05,01,15,09,23.70
2014,05,01,15,10,23.70
2014,05,01,15,11,23.70
2014,05,01,15,12,23.70
2014,05,01,15,13,23.70
2014,05,01,15,14,23.80
2014,05,01,15,15,23.80
2014,05,01,15,16,23.80
2014,05,01,15,17,23.90
2014,05,01,15,18,23.90
2014,05,01,15,19,23.90
2014,05,01,15,20,24.00
2014,05,01,15,21,24.10
2014,05,01,15,22,24.10
2014,05,01,15,23,24.20
2014,05,01,15,24,24.20
2014,05,01,15,25,24.20
2014,05,01,15,26,24.20
2014,05,01,15,27,24.20
2014,05,01,15,28,24.20
2014,05,01,15,29,24.10
2014,05,01,15,30,24.10
2014,05,01,15,31,24.10
2014,05,01,15,32,24.00
2014,05,01,15,33,23.90
2014,05,01,15,34,23.70
2014,05,01,15,35,23.50
2014,05,01,15,36,23.30
2014,05,01,15,37,23.10
2014,05,01,15,38,23.00
2014,05,01,15,39,22.80
2014,05,01,15,40,22.70
2014,05,01,15,41,22.70
2014,05,01,15,42,22.60
2014,05,01,15,43,22.60
2014,05,01,15,44,22.60
2014,05,01,15,45,22.60
2014,05,01,15,46,22.60
2014,05,01,15,47,22.60
2014,05,01,15,48,22.60
2014,05,01,15,49,22.60
2014,05,01,15,50,22.60
2014,05,01,15,51,22.60
2014,05,01,15,52,22.60
2014,05,01,15,53,22.60
2014,05,01,15,54,22.50
2014,05,01,15,55,22.50
2014,05,01,15,56,22.50
2014,05,01,15,57,22.50
2014,05,01,15,58,22.50
2014,05,01,15,59,22.50
2014,05,01,16,00,22.50
2014,05,01,16,01,22.50
2014,05,01,16,02,22.50
2014,05,01,16,03,22.40
2014,05,01,16,04,22.40
2014,05,01,16,05,22.40
2014,05,01,16,06,22.30
2014,05,01,16,07,22.30
2014,05,01,16,08,22.30
2014,05,01,16,09,22.30
2014,05,01,16,10,22.30
2014,05,01,16,11,22.30
2014,05,01,16,12,22.30
2014,05,01,16,13,22.30
2014,05,01,16,14,22.30
2014,05,01,16,15,22.30
2014,05,01,16,16,22.30
2014,05,01,16,17,22.30
2014,05,01,16,18,22.30
2014,05,01,16,19,22.30
2014,05,01,16,20,22.30
2014,05,01,16,21,22.40
2014,05,01,16,22,22.40
2014,05,01,16,23,22.40
2014,05,01,16,24,22.50
2014,05,01,16,25,22.50
2014,05,01,16,26,22.60
2014,05,01,16,27,22.60
2014,05,01,16,28,22.60
2014,05,01,16,29,22.70
2014,05,01,16,30,22.70
2014,05,01,16,31,22.70
2014,05,01,16,32,22.70
2014,05,01,16,33,22.70
2014,05,01,16,34,22.70
2014,05,01,16,35,22.70
2014,05,01,16,36,22.70
2014,05,01,16,37,22.70
2014,05,01,16,38,22.70
2014,05,01,16,39,22.70
2014,05,01,16,40,22.70
2014,05,01,16,41,22.70
2014,05,01,16,42,22.80
2014,05,01,16,43,22.80
2014,05,01,16,44,22.80
2014,05,01,16,45,22.80
2014,05,01,16,46,22.80
2014,05,01,16,47,22.80
2014,05,01,16,48,22.80
2014,05,01,16,49,22.80
2014,05,01,16,50,22.80
2014,05,01,16,51,22.80
2014,05,01,16,52,22.80
2014,05,01,16,53,22.80
2014,05,01,16,54,22.80
2014,05,01,16,55,22.80
2014,05,01,16,56,22.80
2014,05,01,16,57,22.80
2014,05,01,16,58,22.80
2014,05,01,16,59,22.80
2014,05,01,17,00,22.90
2014,05,01,17,01,22.90
2014,05,01,17,02,22.90
2014,05,01,17,03,22.90
2014,05,01,17,04,22.80
2014,05,01,17,05,22.80
2014,05,01,17,06,22.80
2014,05,01,17,07,22.80
2014,05,01,17,08,22.80
2014,05,01,17,09,22.80
2014,05,01,17,10,22.80
2014,05,01,17,11,22.70
2014,05,01,17,12,22.70
2014,05,01,17,13,22.70
2014,05,01,17,14,22.80
2014,05,01,17,15,22.80
2014,05,01,17,16,22.90
2014,05,01,17,17,22.90
2014,05,01,17,18,23.00
2014,05,01,17,19,23.00